Lancaster, CA

7:05 AM PST on February 27, 2017 (GMT -0800)
Gen Fox

Weather History for KWJF - March, 2014

Change the Weather History Date:

Saturday, March 29, 2014

  Actual Average Record
Temperature  
Mean Temperature 60 °F 55 °F  
Max Temperature 77 °F 69 °F 87 °F (1969)
Min Temperature 42 °F 41 °F 27 °F (1977)
Degree Days  
Heating Degree Days 5    
Month to date heating degree days 262  
Since 1 July heating degree days 2499  
Cooling Degree Days 0    
Month to date cooling degree days 0  
Year to date cooling degree days 6  
Growing Degree Days 8 (Base 50)    
Moisture  
Dew Point 33 °F    
Average Humidity 41    
Maximum Humidity 62    
Minimum Humidity 19    
Precipitation  
Precipitation 0.00 in 0.02 in 0.12 in (1953)
Month to date precipitation 0.22 1.09  
Year to date precipitation 2.09 4.37  
Since 1 July precipitation 3.70  
Snow  
Snow 0.00 in - 0.00 in ()
Month to date snowfall 0.0  
Since 1 July snowfall 0.0  
Snow Depth 0.00 in    
Sea Level Pressure  
Sea Level Pressure 30.03 in    
Wind  
Wind Speed 11 mph (WSW)    
Max Wind Speed 29 mph    
Max Gust Speed 37 mph    
Visibility 10 miles    
Events      
T = Trace of Precipitation, MM = Missing Value Source: NWS Daily Summary

Daily Weather History Graph

Daily Weather History Graph

Search for Another Location

Airport or City:

Trip Planner

Search our weather history database for the weather conditions in past years. The results will help you decide how hot, cold, wet, or windy it might be!

Date:

Astronomy

Mar. 29, 2014 Rise Set
Actual Time 6:43 AM PDT 7:11 PM PDT
Civil Twilight 6:18 AM PDT 7:37 PM PDT
Nautical Twilight 5:48 AM PDT 8:06 PM PDT
Astronomical Twilight 5:18 AM PDT 8:37 PM PDT
Moon 5:53 AM PDT (3/29) 6:23 PM PDT (3/29)
Length of Visible Light 13h 18m
Length of Day
12h 27m
Waning Crescent, 1% of the Moon is Illuminated
Mar 29
Waning Crescent
Mar 30
New
Apr 7
First Quarter
Apr 15
Full
Apr 22
Last Quarter

Hourly Weather History & Observations

Time (PDT) Temp. Windchill Dew Point Humidity Pressure Visibility Wind Dir Wind Speed Gust Speed Precip Events Conditions
12:56 AM 52.0 °F - 25.0 °F 35% 30.13 in 10.0 mi West 9.2 mph - N/A   Clear
1:56 AM 52.0 °F - 30.9 °F 45% 30.13 in 10.0 mi West 9.2 mph - N/A   Clear
2:56 AM 50.0 °F - 34.0 °F 54% 30.11 in 10.0 mi West 5.8 mph - N/A   Clear
3:56 AM 48.0 °F - 33.1 °F 56% 30.09 in 10.0 mi West 8.1 mph - N/A   Clear
4:56 AM 46.9 °F - 32.0 °F 56% 30.09 in 10.0 mi Calm Calm - N/A   Clear
5:56 AM 44.1 °F 41.5 °F 30.9 °F 60% 30.10 in 10.0 mi ENE 4.6 mph - N/A   Clear
6:56 AM 42.1 °F - 30.9 °F 65% 30.11 in 10.0 mi Calm Calm - N/A   Clear
7:56 AM 50.0 °F - 35.1 °F 57% 30.12 in 10.0 mi Calm Calm - N/A   Clear
8:56 AM 57.0 °F - 36.0 °F 45% 30.11 in 10.0 mi Calm Calm - N/A   Clear
9:56 AM 66.9 °F - 35.1 °F 31% 30.09 in 10.0 mi WSW 4.6 mph - N/A   Clear
10:56 AM 70.0 °F - 34.0 °F 27% 30.07 in 10.0 mi Variable 3.5 mph - N/A   Clear
11:56 AM 73.9 °F - 30.9 °F 21% 30.05 in 10.0 mi WSW 15.0 mph 23.0 mph N/A   Clear
12:56 PM 75.9 °F - 30.0 °F 19% 30.02 in 10.0 mi SW 17.3 mph 35.7 mph N/A   Clear
1:56 PM 75.0 °F - 30.0 °F 19% 29.99 in 10.0 mi SW 25.3 mph 31.1 mph N/A   Clear
2:56 PM 75.0 °F - 32.0 °F 21% 29.96 in 10.0 mi SSW 24.2 mph 34.5 mph N/A   Clear
3:56 PM 73.9 °F - 33.1 °F 22% 29.95 in 10.0 mi SW 24.2 mph 31.1 mph N/A   Clear
4:56 PM 72.0 °F - 33.1 °F 24% 29.95 in 10.0 mi SW 21.9 mph 29.9 mph N/A   Clear
5:56 PM 68.0 °F - 35.1 °F 30% 29.96 in 10.0 mi SW 15.0 mph - N/A   Clear
6:56 PM 64.9 °F - 34.0 °F 32% 29.96 in 10.0 mi WSW 12.7 mph - N/A   Clear
7:56 PM 62.1 °F - 35.1 °F 37% 29.96 in 10.0 mi WSW 10.4 mph - N/A   Clear
8:56 PM 60.1 °F - 35.1 °F 39% 29.95 in 10.0 mi SSW 12.7 mph - N/A   Clear
9:56 PM 57.9 °F - 39.0 °F 49% 29.94 in 10.0 mi SSW 15.0 mph - N/A   Clear
10:56 PM 57.0 °F - 36.0 °F 45% 29.92 in 10.0 mi SSW 6.9 mph - N/A   Clear
11:56 PM 55.0 °F - 39.9 °F 57% 29.92 in 10.0 mi West 10.4 mph - N/A   Clear